Flag for Greece Weather past 2 weeks in Ilioupoli, Greece

Now
66 °F

Passing clouds.


Feels Like: 66 °F
Forecast: 67 / 80 °F
Wind: 2 mph from North

Location: Eleftherios Venizelos International Airport

Current Time: Sep 15, 2014 at 5:56:46 AM

Latest Report: Sep 15, 2014 at 5:20 AM


Visibility: N/A

Pressure: 29.89 "Hg

Humidity: 88%

Dew point: 63 °F

Location of IlioupoliLocation

Historic Weather in Ilioupoli — Graph

°F

Ilioupoli temperature yesterday

Maximum temperature yesterday: 84 °F (at 2:50 PM)
Minimum temperature yesterday: 64 °F (at 4:50 AM)
Average temperature yesterday: 74 °F

Past Weeks' High & Low Weather Summary

 TemperatureHumidityPressure
High86 °F (Sep 1, 3:20 PM)94% (Sep 6, 3:20 AM)30.01 "Hg (Sep 6, 3:20 AM)
Low59 °F (Sep 11, 5:50 AM)27% (Sep 11, 3:50 PM)29.65 "Hg (Sep 2, 4:50 PM)
Average75 °F64%29.86 "Hg
* Reported Aug 31 3:20 AM — Sep 15 3:50 AM, Ilioupoli, Weather by CustomWeather, © 2014

Note: Actual official high and low records may vary slightly from our data, if they occured in-between our weather recording intervals... More about our weather records

Advertising

Ilioupoli weather history for previous 24 hours

 ConditionsComfort  
Time TempWeatherWind HumidityBarometerVisibility
3:50 AM
Sep 15
64 °FPassing clouds.1 mph88%29.92 "HgN/A
3:20 AM64 °FPassing clouds.5 mph88%29.92 "HgN/A
2:50 AM66 °FPassing clouds.3 mph83%29.92 "HgN/A
2:20 AM66 °FPassing clouds.3 mph83%29.92 "HgN/A
1:50 AM66 °FPassing clouds.2 mph83%29.92 "HgN/A
1:20 AM68 °FPassing clouds.2 mph83%29.92 "HgN/A
12:50 AM68 °FPassing clouds.No wind83%29.92 "HgN/A
12:20 AM68 °FPassing clouds.2 mph83%29.92 "HgN/A
11:50 PM
Sep 14
68 °FPassing clouds.2 mph83%29.92 "HgN/A
11:20 PM70 °FPassing clouds.No wind78%29.92 "HgN/A
10:50 PM72 °FPassing clouds.2 mph73%29.92 "HgN/A
10:20 PM72 °FPassing clouds.2 mph69%29.92 "HgN/A
9:50 PM73 °FPassing clouds.3 mph65%29.92 "HgN/A
9:20 PM73 °FPassing clouds.1 mph69%29.92 "HgN/A
8:50 PM75 °FPassing clouds.2 mph65%29.92 "HgN/A
8:20 PM77 °FPartly sunny.5 mph57%29.92 "HgN/A
7:50 PM77 °FPartly sunny.3 mph54%29.92 "HgN/A
7:20 PM77 °FPartly sunny.3 mph54%29.92 "HgN/A
6:50 PM79 °FPartly sunny.8 mph51%29.89 "HgN/A
6:20 PM79 °FScattered clouds.12 mph51%29.89 "HgN/A
5:50 PM81 °FScattered clouds.12 mph48%29.89 "HgN/A
5:20 PM81 °FScattered clouds.13 mph51%29.89 "HgN/A
4:50 PM82 °FScattered clouds.9 mph45%29.92 "HgN/A
4:20 PM82 °FScattered clouds.9 mph45%29.92 "HgN/A
3:50 PM84 °FScattered clouds.9 mph43%29.92 "HgN/A
3:20 PM84 °FScattered clouds.9 mph40%29.92 "HgN/A
2:50 PM84 °FPassing clouds.10 mph40%29.92 "HgN/A
2:20 PM82 °FPassing clouds.13 mph45%29.92 "HgN/A
1:50 PM82 °FPassing clouds.12 mph45%29.92 "HgN/A
1:20 PM82 °FPassing clouds.13 mph45%29.92 "HgN/A
12:50 PM82 °FPassing clouds.12 mph48%29.92 "HgN/A
12:20 PM81 °FPassing clouds.13 mph51%29.95 "HgN/A
11:50 AM81 °FPassing clouds.13 mph51%29.95 "HgN/A
11:20 AM81 °FPassing clouds.12 mph51%29.95 "HgN/A
10:50 AM79 °FSunny.10 mph51%29.95 "Hg10 mi
10:20 AM79 °FSunny.12 mph51%29.92 "Hg10 mi
9:50 AM79 °FSunny.8 mph51%29.92 "Hg10 mi
9:20 AM77 °FSunny.1 mph54%29.92 "Hg10 mi
8:50 AM73 °FSunny.1 mph61%29.92 "Hg10 mi
8:20 AM70 °FPassing clouds.1 mph64%29.92 "HgN/A
7:50 AM70 °FPassing clouds.2 mph64%29.92 "HgN/A
7:20 AM68 °FPassing clouds.1 mph69%29.92 "HgN/A
6:50 AM68 °FPassing clouds.3 mph69%29.92 "HgN/A
6:20 AM66 °FClear.No wind78%29.95 "Hg10 mi
5:50 AM64 °FClear.3 mph88%29.95 "Hg10 mi
5:20 AM64 °FClear.No wind88%29.95 "Hg10 mi
Weather by CustomWeather, © 2014

See weather overviewHow to use our weather pages